www.pogodaiklimat.ru

Погода и климат >> Архив погоды >> Сингапур >> Singapore


АРХИВ ПОГОДЫ в Singapore

Время (UTC), дата Ветер
(напр.,м/с)
 
Видим.   Явления Облачность Т
(С)
Тd
(С)
f
(%)
Тe
(С)
Тes
(С)
Комфортность P
(гПа)
Po
(гПа)
Тmin
(С)
Tmax
(С)
R
(мм)
R24
(мм)
S
(см)
09 13.06 СВ 3 3500 м гроза, ливневой дождь 9/6 360 м
[Cb cap Ac As Cs]
+26.1 +23.1 84 +35 +36 очень
душно
1010.0 1008.1 0.0
12 13.06 З 1 14 км в посл. час дождь {гроза, ливн. осадки} 9/1 540 м
[Cu Sc Ac trans Ci sp]
+26.4 +24.2 88 +37 +37 очень
душно
1010.1 1008.3 +32.2 0.4
15 13.06 Ю 4 14 км мгла 9/1 540 м
[Cu hum Ac trans Ci sp]
+27.9 +24.4 81 +39 +39 очень
душно
1010.3 1008.5
18 13.06 Ю 2 14 км мгла 8/1 540 м
[Cu hum Ac trans Ci sp]
+27.4 +24.3 83 +38 +38 очень
душно
1009.7 1007.9
21 13.06 Ю 2 12 км мгла 9/1 540 м
[Cu hum Ac lent Ci sp]
+27.9 +25.1 85 +40 +40 очень
душно
1009.2 1007.4
00 14.06 ЮЗ 1 14 км мгла 9/4 480 м
[Cu hum Ac trans Ci sp]
+28.7 +25.6 83 +42 +43 опасность
перегрева
1010.3 1008.5 +25.2
03 14.06 Ю 3 8000 м слабый ливневой дождь 9/6 450 м
[Cb cap Ac lent Cs]
+30.1 +26.2 80 +46 +49 опасность
перегрева
1011.4 1009.6 0.0
06 14.06 Ю 5 14 км осадки на расстоянии {ливн. осадки} 9/6 500 м
[Cb cap Ac lent Cs]
+31.1 +25.8 73 +46 +48 опасность
перегрева
1009.3 1007.4 3
09 14.06 Ю 4 16 км мгла {гроза, ливн. осадки} 9/3 540 м
[Cu Sc Ac trans Cs]
+30.2 +23.8 69 +42 +43 опасность
перегрева
1008.3 1006.5 0.2
12 14.06 Ю 3 12 км мгла {гроза, ливн. осадки} 9/1 540 м
[Cu hum Ac trans Ci sp]
+29.4 +25.1 78 +43 +43 опасность
перегрева
1009.1 1007.3 +32.1
15 14.06 Ю 2 14 км мгла 9/1 540 м
[Cu hum Ac lent Ci sp]
+29.0 +24.5 77 +41 +41 опасность
перегрева
1011.9 1010.0
18 14.06 ЮЗ 1 14 км мгла 9/1 540 м
[Cu Sc Ac lent Ci sp]
+28.4 +24.5 79 +40 +40 очень
душно
1011.0 1009.1
21 14.06 З 1 12 км зарница 9/1 600 м
[Cb cap Ac trans Ci sp]
+28.3 +25.4 84 +41 +41 опасность
перегрева
1009.5 1007.6
00 15.06 З 2 12 км в посл. час ливневой дождь 9/3 540 м
[Cu Sc Ac As Cs]
+26.4 +21.0 72 +33 +34 очень
душно
1010.7 1008.8 +25.2 0.0
03 15.06 З 3 1800 м гроза, ливневой дождь 10/5 240 м
[Cb cap Ac As Cs]
+23.7 +21.8 89 +30 +34 очень
душно
1013.2 1011.3 5
06 15.06 СЗ 1 12 км в посл. час дождь {гроза, ливн. осадки} 10/1 540 м
[Cu Sc Ac As Cs]
+26.8 +24.4 87 +38 +47 очень
душно
1012.1 1010.3 1
09 15.06 ЮЗ 2 16 км мгла {дождь} 10/3 540 м
[Cu Sc Ac As Cs]
+27.1 +24.8 87 +39 +41 очень
душно
1010.1 1008.3 0.4
12 15.06 ЮЗ 2 14 км мгла {дождь} 10/1 540 м
[Cu hum Ac As Cs]
+26.7 +24.5 88 +38 +38 очень
душно
1009.3 1007.5 +29.5 0.0
15 15.06 СЗ 1 14 км в посл. час дождь 10/1 540 м
[Cu hum Ac As Cs]
+26.9 +25.1 90 +39 +39 очень
душно
1010.7 1008.8 0.0
18 15.06 С 1 14 км мгла {дождь} 9/1 480 м
[Cu Sc Ac lent Cs]
+26.6 +25.5 94 +39 +39 очень
душно
1010.0 1008.2
21 15.06 Ю 2 12 км мгла 9/1 480 м
[Cu hum Ac trans Ci sp]
+27.3 +24.8 86 +39 +39 очень
душно
1009.0 1007.2
00 16.06 Ю 3 14 км мгла 9/1 540 м
[Cu hum Ac trans Ci sp]
+28.4 +26.0 87 +43 +43 опасность
перегрева
1010.3 1008.5 +23.6
03 16.06 Ю 4 18 км мгла 9/4 540 м
[Cu hum Ac trans Ci sp]
+30.0 +25.8 78 +45 +48 опасность
перегрева
1011.4 1009.6
06 16.06 Ю 3 18 км мгла 9/4 540 м
[Cu hum Ac trans Ci sp]
+31.2 +23.9 65 +43 +48 опасность
перегрева
1009.5 1007.7
09 16.06 ЮЗ 3 16 км мгла 9/4 660 м
[Cu hum Ac trans Cs]
+31.2 +24.0 66 +43 +45 опасность
перегрева
1008.1 1006.3
12 16.06 Ю 3 16 км мгла 9/1 600 м
[Cu Sc Ac trans Ci sp]
+29.7 +24.1 72 +41 +41 опасность
перегрева
1008.9 1007.1 +32.6
15 16.06 Ю 3 14 км мгла 9/1 450 м
[Cu hum Ac trans Ci sp]
+29.1 +26.0 83 +44 +44 опасность
перегрева
1010.3 1008.5
18 16.06 В 2 14 км мгла 9/1 450 м
[Cu hum Ac trans Ci sp]
+28.7 +25.5 83 +42 +42 опасность
перегрева
1010.1 1008.3
21 16.06 Ю 2 14 км мгла 9/1 540 м
[Cu hum Ac trans Ci sp]
+28.3 +25.7 86 +42 +42 опасность
перегрева
1009.4 1007.6
00 17.06 Ю 3 16 км мгла 9/3 480 м
[Cu hum Ac trans Ci sp]
+28.6 +25.9 85 +43 +43 опасность
перегрева
1010.0 1008.2 +27.7
03 17.06 Ю 4 14 км мгла 9/3 540 м
[Cu med, cong Ac trans Cs]
+30.8 +24.8 70 +44 +48 опасность
перегрева
1011.1 1009.2
06 17.06 Ю 7 14 км мгла 9/4 500 м
[Cb cap Ac trans Cs]
+31.8 +23.9 63 +43 +45 опасность
перегрева
1008.9 1007.1
09 17.06 Ю 7 14 км слабый ливневой дождь 9/5 360 м
[Cu Sc Ac trans Cs]
+30.3 +25.4 75 +44 +45 опасность
перегрева
1007.3 1005.5 0.0
12 17.06 Ю 4 12 км мгла {ливн. осадки} 9/4 500 м
[Cu Sc Ac trans Cs]
+29.5 +25.2 78 +43 +43 опасность
перегрева
1008.3 1006.5 +32.7 0.4
15 17.06 Ю 3 12 км мгла 9/1 540 м
[Cu hum Ac trans Cs]
+29.3 +25.8 81 +43 +43 опасность
перегрева
1009.9 1008.1
18 17.06 Ю 4 12 км мгла 9/1 540 м
[Cu hum Ac trans Cs]
+29.1 +25.7 82 +43 +43 опасность
перегрева
1009.2 1007.4
21 17.06 Ю 2 12 км мгла 9/1 480 м
[Cu hum Ac lent Cs]
+28.3 +25.7 86 +42 +42 опасность
перегрева
1008.2 1006.4
00 18.06 Ю 3 16 км мгла 9/3 480 м
[Cu med, cong Ac trans Cs]
+29.1 +25.4 80 +42 +43 опасность
перегрева
1010.0 1008.2 +27.9
03 18.06 Ю 3 8000 м осадки на расстоянии 9/5 480 м
[Cu med, cong Ac trans Cs]
+31.1 +25.4 72 +45 +49 опасность
перегрева
1010.5 1008.6
06 18.06 Ю 2 12 км в посл. час дождь {гроза, ливн. осадки} 9/3 480 м
[Cu Sc Ac As Cs]
+27.2 +24.0 83 +38 +45 очень
душно
1008.9 1007.0 9
09 18.06 ЮЗ 1 15 км мгла 9/1 540 м
[Cu hum Ac trans Cs]
+28.8 +25.2 81 +42 +45 опасность
перегрева
1007.9 1006.0
12 18.06 З 1 16 км мгла 9/1 540 м
[Cu hum Ac trans Cs]
+28.1 +24.8 82 +40 +40 очень
душно
1009.1 1007.2 +31.3
15 18.06 З 1 14 км мгла 9/1 540 м
[Cu hum Ac lent Cs]
+28.2 +25.2 84 +41 +41 опасность
перегрева
1011.0 1009.2
18 18.06 З 2 12 км мгла 9/1 480 м
[Cu hum Ac lent Ci sp]
+27.8 +24.7 83 +39 +39 очень
душно
1010.9 1009.0
21 18.06 СЗ 3 8000 м слабый дождь {гроза, ливн. осадки} 9/3 400 м
[Cb cap Ac As Cs]
+24.3 +22.3 89 +32 +32 очень
душно
1010.0 1008.2 0.6
00 19.06 ЮЗ 1 16 км мгла {гроза, ливн. осадки} 9/5 540 м
[Cu Sc Ac trans Cs]
+26.4 +23.2 83 +36 +36 очень
душно
1010.9 1009.0 +23.9 0.0
03 19.06 Ю 6 18 км мгла 9/4 480 м
[Cu hum Ac trans Cs]
+28.3 +25.0 82 +41 +43 опасность
перегрева
1011.2 1009.4
06 19.06 Ю 5 18 км мгла 9/4 450 м
[Cu Sc Ac trans Ci sp]
+29.4 +23.8 72 +40 +44 очень
душно
1010.1 1008.2
09 19.06 ЮЗ 2 16 км мгла 9/3 480 м
[Cu hum Ac lent Cs]
+29.6 +23.6 70 +40 +42 очень
душно
1009.1 1007.3
12 19.06 ЮЗ 2 14 км мгла 9/1 480 м
[Cu hum Ac As Ci sp]
+28.7 +24.2 77 +40 +40 очень
душно
1010.4 1008.6 +30.0
15 19.06 Ю 4 14 км мгла 9/1 480 м
[Cu hum Ac As Ci sp]
+29.0 +23.8 74 +40 +40 очень
душно
1011.4 1009.6
18 19.06 Ю 3 14 км мгла 9/1 480 м
[Cu hum Ac As Ci sp]
+28.7 +24.9 80 +41 +41 опасность
перегрева
1010.7 1008.8
21 19.06 ЮЗ 1 10 км мгла 9/1 480 м
[Cu hum Ac lent Ci sp]
+28.1 +25.9 88 +42 +42 опасность
перегрева
1010.2 1008.4
00 20.06 ЮЗ 2 14 км мгла 9/3 480 м
[Cu med, cong Ac trans Ci sp]
+28.6 +25.5 83 +42 +42 опасность
перегрева
1011.2 1009.3 +26.6
03 20.06 З 3 2000 м гроза, ливневой дождь 10/6 240 м
[Cb cap Ac As Cs]
+23.6 +23.2 98 +32 +34 очень
душно
1012.6 1010.7 17
06 20.06 ЮЗ 1 10 км слабый дождь {гроза, ливн. осадки} 9/4 480 м
[Cu Sc Ac As Cs]
+28.0 +24.9 83 +40 +47 очень
душно
1011.1 1009.2 4

 

Местоположение метеостанции Singapore (Сингапур): широта 1.37 долгота 103.98 высота над уровнем моря 16 м.

В архиве по умолчанию представлена погода в Singapore за последнюю неделю. Архивные данные за месяц целиком и за предыдущие месяцы, начиная с января 2011 года, Вы можете получить, выбрав интересующий диапазон дат из раскрывающегося списка и нажав кнопку "Ввод!".


*Определитесь, кто Вы:
робот инопланетянин человек

Внимание! Время в таблицах - всемирное. Для получения местного времени необходимо прибавить поправку, которая в Singapore равна 7 ч.

Смотрите также архив погоды в соседних городах и на ближайших метеорологических станциях:

Погода в Batam Hang Nadim Airport (Индонезия) (31 км)
Погода в Johore Bharu / Senai (Малайзия) (45 км)
Погода в Tanjung Pinang (Индонезия) (79 км)
Погода в Singkep Dabo Airport (Индонезия) (216 км)
Погода в Malacca (Малайзия) (217 км)
Погода в Rengat Japura Airport (Индонезия) (265 км)
Погода в Kuantan (Малайзия) (281 км)
Погода в Kuala Lumpur Int Airport (Малайзия) (295 км)
Погода в Pekanbaru (Индонезия) (299 км)
Погода в Tarempa (Индонезия) (324 км)

Пояснения к столбцам:

Ветер - указаны скорость ветра в м/с - средняя за 10 мин, порывы в срок и между сроками (в фигурных скобках) и направление, откуда дует ветер: С - северный, СВ - северо-восточный, В - восточный, ЮВ - юго-восточный, Ю - южный, ЮЗ - юго-западный, З - западный, СЗ - северо-западный.
Видимость - горизонтальная дальность видимости в метрах или километрах. При видимости от 1 до 10 км при отсутствии осадков обычно наблюдается дымка, при ухудшении видимости до 1 км и менее - туман. В сухую погоду видимость может ухудшаться дымом, пылью или мглою.
Явления - указаны атмосферные явления, наблюдавшиеся в срок или в последний час перед сроком; фигурными скобками обозначены явления, наблюдавшиеся между сроками (за 1-3 часа до срока); квадратными скобками обозначены град или гололедные отложения с указанием их диаметра в мм.
Облачность - указаны через наклонную черту общая и нижняя облачность в баллах и высота нижней границы облаков в метрах; квадратными скобками обозначены формы облаков: Ci - перистые, Cs - перисто-слоистые, Cc - перисто-кучевые, Ac - высококучевые, As - высокослоистые, Sc - слоисто-кучевые, Ns - слоисто-дождевые, Cu - кучевые, Cb - кучево-дождевые. Подробнее классификацию облаков см. в Атласе облаков (PDF).
T - Температура воздуха - температура, измеренная на высоте 2 м над землей.
Td - Температура точки росы - температура, при понижении до которой содержащийся в воздухе водяной пар достигнет насыщения.
f - Относительная влажность воздуха - влажноcть воздуха, измеренная на высоте 2 м над землей.
Te - Эффективная температура - температура, которую ощущает одетый по сезону человек в тени. Характеристика душности погоды. При расчете учитывается влияние влажности воздуха и скорости ветра на теплоощущения человека.
Tes - Эффективная температура на солнце - температура, которую ощущает человек, с поправкой на солнечный нагрев. Характеристика знойности погоды. Зависит от высоты солнца над горизонтом, облачности и скорости ветра. Ночью, в пасмурную погоду, а также при ветре 12 м/с и более поправка равна нулю.
P - Атмосферное давление - приведенное к уровню моря атмосферное давление.
Po - Атмосферное давление - измеренное на уровне метеостанции атмосферное давление.
Tmin - Минимальная температура - минимум температуры воздуха на высоте 2 м над землей.
Tmax - Максимальная температура - максимум температуры воздуха на высоте 2 м над землей.
R - Количество осадков - Количество выпавших осадков за период времени, мм. При наведении курсора мыши на число - период времени, за который выпало указанное количество осадков.
R24 - Количество осадков - Количество выпавших осадков за 24 часа, мм.
S - Снежный покров - Высота снежного покрова, см. При наведении курсора мыши на число - состояние снежного покрова и степень покрытия местности в баллах.